Weather History for KLGA - March, 2014

Change the Weather History Date:

Thursday, March 27, 2014

  Actual Average Record
Temperature  
Mean Temperature 33 °F 46 °F  
Max Temperature 42 °F 54 °F 83 °F (1998)
Min Temperature 23 °F 38 °F 23 °F (2014)
Degree Days  
Heating Degree Days 32 19  
Month to date heating degree days 783 632  
Since 1 July heating degree days 4440 4061  
Cooling Degree Days 0 0  
Month to date cooling degree days 0 0  
Year to date cooling degree days 0 0  
Moisture  
Dew Point 10 °F    
Average Humidity 35    
Maximum Humidity 50    
Minimum Humidity 20    
Precipitation  
Precipitation 0.00 in 0.14 in 1.20 in (1983)
Month to date precipitation 1.35 3.43  
Year to date precipitation 8.64 9.36  
Snow  
Snow 0.00 in 0.10 in 0.90 in (1959)
Month to date snowfall 0.4 4.1  
Since 1 July snowfall 52.1 26.1  
Snow Depth 0.00 in    
Sea Level Pressure  
Sea Level Pressure 30.33 in    
Wind  
Wind Speed 12 mph (WSW)    
Max Wind Speed 26 mph    
Max Gust Speed 31 mph    
Visibility 10 miles    
Events      
T = Trace of Precipitation, MM = Missing Value Source: NWS Daily Summary

Daily Weather History Graph

Daily Weather History Graph

Search for Another Location

Airport or City:

Trip Planner

Search our weather history database for the weather conditions in past years. The results will help you decide how hot, cold, wet, or windy it might be!

Date:

Astronomy

Mar. 27, 2014 Rise Set
Actual Time 6:47 AM EDT 7:15 PM EDT
Civil Twilight 6:19 AM EDT 7:42 PM EDT
Nautical Twilight 5:47 AM EDT 8:14 PM EDT
Astronomical Twilight 5:14 AM EDT 8:48 PM EDT
Moon 4:38 AM EDT (3/27) 3:58 PM EDT (3/27)
Length of Visible Light 13h 22m
Length of Day
12h 27m
Waning Crescent, 13% of the Moon is Illuminated
Mar 27
Waning Crescent
Mar 30
New
Apr 7
First Quarter
Apr 15
Full
Apr 22
Last Quarter

Hourly Weather History & Observations

Time (EDT) Temp. Windchill Dew Point Humidity Pressure Visibility Wind Dir Wind Speed Gust Speed Precip Events Conditions
12:51 AM 25.0 °F 10.6 °F 6.1 °F 45% 30.26 in 10.0 mi NW 20.7 mph 27.6 mph N/A   Clear
1:51 AM 25.0 °F 10.9 °F 6.1 °F 45% 30.27 in 10.0 mi WNW 19.6 mph 29.9 mph N/A   Clear
2:51 AM 25.0 °F 13.1 °F 6.1 °F 45% 30.29 in 10.0 mi NW 13.8 mph 28.8 mph N/A   Clear
3:51 AM 24.1 °F 13.1 °F 7.0 °F 48% 30.32 in 10.0 mi WNW 11.5 mph - N/A   Clear
4:51 AM 24.1 °F 11.0 °F 7.0 °F 48% 30.35 in 10.0 mi NW 16.1 mph 24.2 mph N/A   Clear
5:51 AM 24.1 °F 12.0 °F 6.1 °F 46% 30.36 in 10.0 mi NW 13.8 mph 20.7 mph N/A   Clear
6:51 AM 24.1 °F 12.0 °F 8.1 °F 51% 30.37 in 10.0 mi NW 13.8 mph - N/A   Partly Cloudy
7:51 AM 24.1 °F 11.5 °F 8.1 °F 51% 30.40 in 10.0 mi WNW 15.0 mph - N/A   Partly Cloudy
8:51 AM 25.0 °F 15.5 °F 6.1 °F 45% 30.40 in 10.0 mi NW 9.2 mph - N/A   Partly Cloudy
9:51 AM 27.0 °F 20.5 °F 6.1 °F 41% 30.42 in 10.0 mi NW 5.8 mph - N/A   Scattered Clouds
10:51 AM 30.0 °F 26.5 °F 6.1 °F 36% 30.42 in 10.0 mi NNW 3.5 mph - N/A   Scattered Clouds
11:51 AM 34.0 °F - 3.0 °F 27% 30.39 in 10.0 mi Calm Calm - N/A   Scattered Clouds
12:51 PM 37.0 °F 30.4 °F 1.9 °F 23% 30.38 in 10.0 mi SW 9.2 mph - N/A   Mostly Cloudy
1:51 PM 37.0 °F 29.8 °F 1.9 °F 23% 30.36 in 10.0 mi SSW 10.4 mph - N/A   Mostly Cloudy
2:51 PM 41.0 °F 35.2 °F 3.0 °F 21% 30.33 in 10.0 mi WSW 9.2 mph 17.3 mph N/A   Mostly Cloudy
3:51 PM 41.0 °F 33.1 °F 5.0 °F 23% 30.32 in 10.0 mi South 15.0 mph 20.7 mph N/A   Mostly Cloudy
4:51 PM 39.9 °F 31.1 °F 15.1 °F 36% 30.31 in 10.0 mi SSE 17.3 mph 20.7 mph N/A   Mostly Cloudy
5:51 PM 39.0 °F 30.6 °F 21.0 °F 49% 30.31 in 10.0 mi South 15.0 mph 19.6 mph N/A   Mostly Cloudy
6:51 PM 39.9 °F 33.4 °F 21.9 °F 49% 30.30 in 10.0 mi SSE 10.4 mph - N/A   Mostly Cloudy
7:51 PM 39.9 °F 32.5 °F 21.0 °F 47% 30.28 in 10.0 mi South 12.7 mph - N/A   Mostly Cloudy
8:51 PM 39.0 °F 30.6 °F 19.9 °F 46% 30.29 in 10.0 mi South 15.0 mph - N/A   Mostly Cloudy
9:51 PM 37.9 °F 28.9 °F 19.0 °F 47% 30.30 in 10.0 mi South 16.1 mph - N/A   Mostly Cloudy
10:51 PM 37.9 °F 30.9 °F 15.1 °F 39% 30.30 in 10.0 mi SSW 10.4 mph 19.6 mph N/A   Scattered Clouds
11:51 PM 37.9 °F 30.9 °F 16.0 °F 41% 30.28 in 10.0 mi SSW 10.4 mph - N/A   Scattered Clouds